Weather Roundup
Issued by NWS Corpus Christi, TX

Home | Current Version | Previous Version | Text Only | Print | Product List | Glossary On
Versions: 1 2 3 4 5 6 7 8 9 10 11 12 13 14 15 16 17 18 19 20 21 22 23 24 25 26 27 28 29 30 31 32 33 34 35 36 37 38 39 40 41 42 43 44 45 46 47 48 49 50
000
ASUS44 KCRP 231110
HRRCRP

SOUTH TEXAS REGIONAL WEATHER ROUNDUP
NATIONAL WEATHER SERVICE CORPUS CHRISTI TX
600 AM CDT SAT AUG 23 2014


TXZ229>244-231200-
...CORPUS CHRISTI AREA OBSERVATIONS...

CITY           SKY/WX    TMP DP  RH WIND       PRES   REMARKS
CORPUS CHRISTI PTCLDY    74  72  93 SE7       29.97S
NAS CORPUS CHR CLEAR     81  78  91 S8        29.97S
ROCKPORT       MOCLDY    82  77  84 SW3       29.97S HX  90
KINGSVILLE NAS CLEAR     76  76 100 S5        29.97S
ALICE          PTCLDY    74  73  97 CALM      29.97S FOG
FALFURRIAS     CLEAR     72  69  90 CALM      29.96F
$$

...VICTORIA AREA OBSERVATIONS...

CITY           SKY/WX    TMP DP  RH WIND       PRES   REMARKS
VICTORIA       PTCLDY    77  75  93 CALM      30.00R
BEEVILLE       FAIR      74  74 100 CALM      29.98S
PLEASANTON     CLOUDY    76  73  90 CALM      30.00S
SAN ANTONIO    CLOUDY    79  73  82 S9        30.02S
$$

...LAREDO AREA OBSERVATIONS...

CITY           SKY/WX    TMP DP  RH WIND       PRES   REMARKS
LAREDO         CLEAR     78  72  82 SE9       29.98S
COTULLA        PTCLDY    76  70  82 SE8       29.98S
DEL RIO        PTCLDY    78  67  68 E6        29.97R
MCALLEN        PTCLDY    79  75  87 SE7       29.95F
HEBBRONVILLE   PTCLDY    75  73  92 E3        29.99S
$$

...OTHER TEXAS OBSERVATIONS...

CITY           SKY/WX    TMP DP  RH WIND       PRES   REMARKS
BROWNSVILLE    MOCLDY    79  77  94 CALM      29.95F
HOUSTON        CLEAR     76  74  93 CALM      30.00R
COL. STATION   CLEAR     74  72  93 S3        30.02R
AUSTIN         PTCLDY    72  71  97 SW3       30.01S
WACO           CLEAR     76  71  85 S8        30.00R
FORT WORTH     CLEAR     81  67  62 SW12      29.97S
WICHITA FALLS  CLEAR     73  59  61 S9        29.94S
LUBBOCK        MOCLDY    72  56  57 SE8       30.03S
EL PASO        MOCLDY    68  61  78 CALM      30.07S
$$

...MARINE OBSERVATIONS...

STATION/POSITION TIME  SKY/WX   TEMP    WIND        PRES    VSBY  WAVE   SWELL
                                AIR SEA DIR/SP/G                  HT/PER HT/PER
                 (UTC)          (F)     (DEG/KT/KT) (MB)    (MI)  (FT/S) (FT/S)
PORT ARANSAS     1100            81 84  180/  8/  8 1015.3F
BUOY 90 E PORT A 1100            84 85  170/ 10/ 12 1015.7S         2/ 4   2/ 5
BUOY 45 SE BAFFI 1100            84 85  170/ 10/ 12 1014.1R         3/ 4   2/ 5
BUOY 200 E PT IS 1100            85 86  150/  8/  8 1014.9R         2/ 6   2/ 6
BUOY 15 E GALVES NOT AVBL
$$



USA.gov is the U.S. government's official web portal to all federal, state and local government web resources and services.